Weather History for Houston / Dunn Helistop, TX

Change the Weather History Date:

Saturday, March 16, 2013

  Actual Average (KHOU) Record (KHOU)
Temperature  
Mean Temperature 70 °F 63 °F  
Max Temperature 80 °F 73 °F 87 °F (1908)
Min Temperature 59 °F 53 °F 34 °F (1913)
Degree Days  
Heating Degree Days 0 4  
Month to date heating degree days 92  
Since 1 July heating degree days 1280  
Cooling Degree Days 4 2  
Month to date cooling degree days 30  
Year to date cooling degree days 68  
Growing Degree Days 20 (Base 50)    
Moisture  
Dew Point 57 °F    
Average Humidity 71    
Maximum Humidity 94    
Minimum Humidity 39    
Precipitation  
Precipitation 0.00 in 0.11 in 2.83 in (1896)
Month to date precipitation 1.80  
Year to date precipitation 8.38  
Sea Level Pressure  
Sea Level Pressure 29.92 in    
Wind  
Wind Speed 10 mph (SSW)    
Max Wind Speed 22 mph    
Max Gust Speed 29 mph    
Visibility 9 miles    
Events      
T = Trace of Precipitation, MM = Missing Value Source: NWS Daily Summary

Daily Weather History Graph

Daily Weather History Graph

Search for Another Location

Airport:

Trip Planner

Search our weather history database for the weather conditions in past years. The results will help you decide how hot, cold, wet, or windy it might be!

Date:

Astronomy

Mar. 16, 2013 Rise Set
Actual Time 7:29 AM CDT 7:30 PM CDT
Civil Twilight 7:06 AM CDT 7:54 PM CDT
Nautical Twilight 6:38 AM CDT 8:22 PM CDT
Astronomical Twilight 6:10 AM CDT 8:50 PM CDT
Moon 10:22 AM CDT (3/16) No Moon Set
Length of Visible Light 12h 48m
Length of Day
12h 00m
Waxing Crescent, 23% of the Moon is Illuminated
Mar 16
Waxing Crescent
Mar 19
First Quarter
Mar 27
Full
Apr 2
Last Quarter
Apr 10
New

Hourly Weather History & Observations

Time (CDT) Temp. Heat Index Dew Point Humidity Pressure Visibility Wind Dir Wind Speed Gust Speed Precip Events Conditions
12:15 AM 62.6 °F - 57.2 °F 82% 30.03 in 9.0 mi South 11.5 mph 17.3 mph N/A   Clear
12:35 AM 62.6 °F - 57.2 °F 82% 30.02 in 10.0 mi South 12.7 mph 17.3 mph N/A   Clear
12:55 AM 62.6 °F - 57.2 °F 82% 30.01 in 10.0 mi South 9.2 mph 16.1 mph N/A   Clear
1:15 AM 62.6 °F - 57.2 °F 82% 30.01 in 10.0 mi South 12.7 mph 20.7 mph N/A   Clear
1:35 AM 62.6 °F - 57.2 °F 82% 30.00 in 10.0 mi SSW 8.1 mph - N/A   Clear
1:55 AM 60.8 °F - 57.2 °F 88% 30.00 in 10.0 mi South 10.4 mph 17.3 mph N/A   Clear
2:15 AM 60.8 °F - 57.2 °F 88% 29.99 in 10.0 mi South 9.2 mph 18.4 mph N/A   Clear
2:35 AM 60.8 °F - 57.2 °F 88% 29.99 in 10.0 mi South 9.2 mph - N/A   Clear
2:55 AM 60.8 °F - 57.2 °F 88% 29.99 in 10.0 mi South 3.5 mph - N/A   Clear
3:15 AM 60.8 °F - 55.4 °F 82% 29.98 in 10.0 mi WSW 3.5 mph - N/A   Clear
3:35 AM 59.0 °F - 55.4 °F 88% 29.98 in 10.0 mi West 3.5 mph - N/A   Clear
3:55 AM 59.0 °F - 55.4 °F 88% 29.97 in 10.0 mi SW 9.2 mph - N/A   Clear
4:15 AM 59.0 °F - 55.4 °F 88% 29.96 in 9.0 mi SW 3.5 mph - N/A   Clear
4:35 AM 59.0 °F - 55.4 °F 88% 29.96 in 10.0 mi SW 6.9 mph - N/A   Clear
4:55 AM 59.0 °F - 55.4 °F 88% 29.96 in 10.0 mi Calm Calm - N/A   Clear
5:15 AM 59.0 °F - 55.4 °F 88% 29.95 in 10.0 mi South 3.5 mph - N/A   Clear
5:35 AM 59.0 °F - 55.4 °F 88% 29.96 in 9.0 mi SSW 4.6 mph - N/A   Clear
5:55 AM 59.0 °F - 55.4 °F 88% 29.95 in 10.0 mi South 6.9 mph - N/A   Clear
6:35 AM 59.0 °F - 55.4 °F 88% 29.95 in 9.0 mi SSW 4.6 mph - N/A   Scattered Clouds
6:55 AM 59.0 °F - 57.2 °F 94% 29.95 in 8.0 mi SW 4.6 mph - N/A   Scattered Clouds
7:15 AM 59.0 °F - 57.2 °F 94% 29.95 in 8.0 mi South 3.5 mph - N/A   Scattered Clouds
7:35 AM 59.0 °F - 57.2 °F 94% 29.95 in 7.0 mi South 6.9 mph - N/A   Partly Cloudy
7:55 AM 59.0 °F - 57.2 °F 94% 29.95 in 5.0 mi South 9.2 mph - N/A   Clear
8:15 AM 60.8 °F - 57.2 °F 88% 29.95 in 6.0 mi South 9.2 mph - N/A   Clear
8:35 AM 60.8 °F - 57.2 °F 88% 29.95 in 5.0 mi South 10.4 mph - N/A   Clear
8:55 AM 62.6 °F - 57.2 °F 82% 29.95 in 6.0 mi SSW 6.9 mph - N/A   Clear
9:15 AM 64.4 °F - 59.0 °F 83% 29.96 in 6.0 mi South 9.2 mph - N/A   Clear
9:35 AM 66.2 °F - 59.0 °F 78% 29.96 in 8.0 mi SSE 4.6 mph - N/A   Clear
9:55 AM 68.0 °F - 57.2 °F 68% 29.96 in 8.0 mi SW 8.1 mph - N/A   Clear
10:15 AM 69.8 °F - 57.2 °F 64% 29.96 in 9.0 mi SW 11.5 mph 21.9 mph N/A   Clear
10:35 AM 71.6 °F - 57.2 °F 60% 29.96 in 8.0 mi SSW 12.7 mph 24.2 mph N/A   Clear
10:55 AM 73.4 °F - 57.2 °F 57% 29.96 in 8.0 mi SW 9.2 mph 26.5 mph N/A   Clear
11:15 AM 75.2 °F - 57.2 °F 53% 29.96 in 9.0 mi SSW 12.7 mph 19.6 mph N/A   Partly Cloudy
11:35 AM 75.2 °F - 57.2 °F 53% 29.96 in 9.0 mi SW 10.4 mph 21.9 mph N/A   Partly Cloudy
11:55 AM 75.2 °F - 55.4 °F 50% 29.95 in 10.0 mi SW 17.3 mph 24.2 mph N/A   Partly Cloudy
12:15 PM 77.0 °F - 55.4 °F 47% 29.95 in 9.0 mi SSW 12.7 mph 21.9 mph N/A   Scattered Clouds
12:35 PM 77.0 °F - 55.4 °F 47% 29.94 in 10.0 mi SSW 8.1 mph 18.4 mph N/A   Scattered Clouds
12:55 PM 77.0 °F - 55.4 °F 47% 29.93 in 9.0 mi SW 9.2 mph 23.0 mph N/A   Mostly Cloudy
1:15 PM 78.8 °F - 55.4 °F 44% 29.92 in 9.0 mi SW 10.4 mph 19.6 mph N/A   Mostly Cloudy
1:35 PM 80.6 °F 80.3 °F 53.6 °F 39% 29.91 in 10.0 mi WSW 12.7 mph 21.9 mph N/A   Scattered Clouds
1:55 PM 80.6 °F 80.3 °F 53.6 °F 39% 29.89 in 10.0 mi South 17.3 mph 25.3 mph N/A   Partly Cloudy
2:15 PM 80.6 °F 80.3 °F 53.6 °F 39% 29.89 in 10.0 mi SW 12.7 mph 20.7 mph N/A   Partly Cloudy
2:35 PM 80.6 °F 80.5 °F 55.4 °F 42% 29.87 in 10.0 mi SSW 11.5 mph 19.6 mph N/A   Partly Cloudy
2:55 PM 80.6 °F 80.5 °F 55.4 °F 42% 29.86 in 9.0 mi South 13.8 mph 25.3 mph N/A   Scattered Clouds
3:15 PM 78.8 °F - 55.4 °F 44% 29.85 in 10.0 mi SSW 15.0 mph 26.5 mph N/A   Scattered Clouds
3:55 PM 77.0 °F - 57.2 °F 50% 29.84 in 8.0 mi SSW 11.5 mph 23.0 mph N/A   Scattered Clouds
4:15 PM 77.0 °F - 55.4 °F 47% 29.84 in 9.0 mi South 10.4 mph 28.8 mph N/A   Scattered Clouds
4:35 PM 77.0 °F - 57.2 °F 50% 29.83 in 9.0 mi South 15.0 mph 27.6 mph N/A   Partly Cloudy
4:55 PM 77.0 °F - 59.0 °F 54% 29.83 in 9.0 mi South 16.1 mph 25.3 mph N/A   Scattered Clouds
5:15 PM 77.0 °F - 57.2 °F 50% 29.83 in 9.0 mi SSW 12.7 mph 21.9 mph N/A   Partly Cloudy
5:35 PM 75.2 °F - 59.0 °F 57% 29.83 in 9.0 mi South 20.7 mph 27.6 mph N/A   Scattered Clouds
5:55 PM 73.4 °F - 59.0 °F 61% 29.83 in 9.0 mi South 18.4 mph 27.6 mph N/A   Scattered Clouds
6:15 PM 73.4 °F - 59.0 °F 61% 29.83 in 9.0 mi South 15.0 mph 25.3 mph N/A   Scattered Clouds
6:35 PM 71.6 °F - 59.0 °F 64% 29.84 in 8.0 mi SSW 11.5 mph 27.6 mph N/A   Partly Cloudy
6:55 PM 71.6 °F - 59.0 °F 64% 29.83 in 8.0 mi South 21.9 mph 28.8 mph N/A   Clear
7:15 PM 69.8 °F - 59.0 °F 68% 29.83 in 8.0 mi South 15.0 mph 27.6 mph N/A   Clear
7:35 PM 68.0 °F - 59.0 °F 73% 29.84 in 9.0 mi South 17.3 mph 26.5 mph N/A   Partly Cloudy
7:55 PM 68.0 °F - 59.0 °F 73% 29.85 in 10.0 mi South 13.8 mph 24.2 mph N/A   Mostly Cloudy
8:15 PM 68.0 °F - 59.0 °F 73% 29.85 in 10.0 mi South 15.0 mph - N/A   Scattered Clouds
8:55 PM 68.0 °F - 59.0 °F 73% 29.85 in 10.0 mi South 15.0 mph 19.6 mph N/A   Mostly Cloudy
9:15 PM 68.0 °F - 59.0 °F 73% 29.86 in 10.0 mi South 13.8 mph 19.6 mph N/A   Scattered Clouds
9:55 PM 66.2 °F - 59.0 °F 78% 29.86 in 10.0 mi South 12.7 mph 18.4 mph N/A   Clear
10:15 PM 66.2 °F - 59.0 °F 78% 29.86 in 10.0 mi South 12.7 mph 17.3 mph N/A   Clear
10:35 PM 66.2 °F - 59.0 °F 78% 29.87 in 10.0 mi South 12.7 mph - N/A   Clear
10:55 PM 66.2 °F - 59.0 °F 78% 29.87 in 10.0 mi South 11.5 mph 17.3 mph N/A   Clear
11:15 PM 64.4 °F - 59.0 °F 83% 29.87 in 10.0 mi South 11.5 mph 19.6 mph N/A   Clear
11:35 PM 64.4 °F - 59.0 °F 83% 29.86 in 8.0 mi South 12.7 mph 18.4 mph N/A   Clear
11:55 PM 64.4 °F - 59.0 °F 83% 29.86 in 8.0 mi South 13.8 mph - N/A   Clear